Terug naar catalogus

DELTA 1 DEB

ActiefSSO
NORAD 7073·DEBRIS·🇺🇸 United States

Gelanceerd Nov 6, 1973 vanaf Vandenberg Space Force Base

Loading…

Volgende Passages (komende 24 uur)

TLE

VersSource: Space-Track

Epoch: Sep 14, 2026, 08:25 UTC

1 07073U 73086BR  26257.35102940 -.00000047  00000-0 -10639-4 0  9993
2 07073 102.5295 224.0692 0063679 218.9643 309.5936 12.28475604369824

Volg DELTA 1 DEB in realtime met AllMySat

Download on the App Store